FW8178 Weather Reports


time (UTC)temp
F
wind
direction
speed
knots
gust
knots
rain 1hr
in
rain 24hr
in
rain mn
in
humidity
%
barometer
mb
20260510210032 65 227 0.0 2.6 0.00 0.00 0.00 70 1010.8
20260510204512 65 227 0.9 3.5 0.00 0.00 0.00 70 1010.6
20260510203013 67 227 2.6 4.3 0.00 0.00 0.00 68 1010.4
20260510201511 67 190 1.7 5.2 0.00 0.00 0.00 69 1010.1
20260510200011 67 168 3.5 5.2 0.00 0.00 0.00 65 1009.6
20260510194511 69 200 2.6 4.3 0.00 0.00 0.00 62 1009.5
20260510193013 69 49 0.9 3.5 0.00 0.00 0.00 60 1009.4
20260510191512 69 84 0.9 5.2 0.00 0.00 0.00 60 1009.4
20260510190011 71 291 3.5 12.2 0.00 0.00 0.00 58 1009.2
20260510184510 71 195 9.6 18.2 0.00 0.00 0.00 55 1008.8
20260510183010 72 231 8.7 19.1 0.00 0.00 0.00 53 1008.8
20260510181520 73 232 11.3 23.5 0.00 0.00 0.00 52 1008.7
20260510180009 73 207 13.9 24.3 0.00 0.00 0.00 51 1008.8
20260510174508 74 232 12.2 24.3 0.00 0.00 0.00 51 1008.7
20260510173007 74 224 13.0 24.3 0.00 0.00 0.00 49 1008.7
20260510171510 75 190 7.8 20.9 0.00 0.00 0.00 51 1008.6
20260510170006 75 205 13.9 24.3 0.00 0.00 0.00 51 1008.5
20260510164503 75 205 14.8 20.9 0.00 0.00 0.00 50 1008.6
20260510163002 76 210 12.2 20.0 0.00 0.00 0.00 49 1008.6
20260510161600 77 222 13.9 23.5 0.00 0.00 0.00 48 1008.7
20260510160104 77 196 13.9 21.7 0.00 0.00 0.00 47 1008.7
20260510154602 77 186 14.8 23.5 0.00 0.00 0.00 47 1008.8
20260510153105 77 206 13.9 21.7 0.00 0.00 0.00 47 1008.8
20260510151554 77 216 15.6 25.2 0.00 0.00 0.00 46 1009.0
20260510150055 77 231 13.0 21.7 0.00 0.00 0.00 47 1009.2
20260510144552 78 213 11.3 21.7 0.00 0.00 0.00 48 1009.4
20260510143101 78 234 12.2 21.7 0.00 0.00 0.00 47 1009.5
20260510141552 78 221 13.0 19.1 0.00 0.00 0.00 47 1009.5
20260510140046 79 219 10.4 24.3 0.00 0.00 0.00 48 1009.8
20260510134545 78 233 14.8 24.3 0.00 0.00 0.00 48 1010.0
20260510133042 78 234 10.4 27.8 0.00 0.00 0.00 51 1010.0
20260510131539 78 222 13.0 22.6 0.00 0.00 0.00 51 1010.1
20260510130041 78 191 14.8 23.5 0.00 0.01 0.00 51 1010.1
20260510124536 78 236 11.3 20.9 0.00 0.01 0.00 53 1010.5
20260510123036 77 211 11.3 18.2 0.00 0.01 0.00 53 1010.7
20260510121529 74 185 8.7 19.1 0.00 0.01 0.00 68 1011.0
20260510120027 74 160 9.6 17.4 0.00 0.01 0.00 68 1011.3
20260510114529 74 185 12.2 21.7 0.00 0.01 0.00 70 1011.5
20260510113023 74 165 11.3 15.6 0.00 0.01 0.00 66 1011.6
20260510111520 75 209 8.7 16.5 0.00 0.01 0.00 66 1011.9
20260510110019 72 123 8.7 13.9 0.00 0.02 0.00 70 1012.0
20260510104517 73 181 12.2 16.5 0.00 0.02 0.00 64 1012.2
20260510103014 74 188 6.1 9.6 0.00 0.02 0.00 61 1012.1
20260510101515 72 137 3.5 8.7 0.00 0.02 0.00 68 1012.1
20260510100007 71 71 4.3 9.6 0.00 0.12 0.00 69 1012.2
20260510094504 70 121 3.5 7.0 0.00 0.12 0.00 70 1012.3
20260510093102 70 80 3.5 7.0 0.00 0.12 0.00 70 1012.6
20260510091557 69 92 1.7 6.1 0.00 0.12 0.00 72 1012.7
20260510090051 68 98 0.0 6.1 0.00 0.18 0.00 73 1012.5
20260510084546 67 82 1.7 5.2 0.00 0.18 0.00 76 1012.8
20260510083049 66 128 0.9 3.5 0.00 0.18 0.00 77 1012.9
20260510081544 65 178 0.9 3.5 0.00 0.18 0.00 79 1012.6
20260510080037 64 84 0.9 3.5 0.00 0.23 0.00 81 1012.8
20260510074532 63 235 0.9 4.3 0.00 0.23 0.00 83 1013.0
20260510073028 62 300 0.9 4.3 0.00 0.23 0.00 89 1013.1
20260510071535 60 284 1.7 7.0 0.00 0.23 0.00 91 1013.2
20260510070021 59 281 2.6 5.2 0.00 0.31 0.00 93 1013.0
20260510064518 58 321 0.9 2.6 0.00 0.31 0.00 94 1012.9
20260510063020 56 321 1.7 2.6 0.00 0.31 0.00 94 1012.8
20260510061528 57 317 0.9 3.5 0.00 0.31 0.00 94 1012.9
20260510060012 56 201 0.9 2.6 0.00 0.36 0.00 95 1012.7
20260510054510 55 200 0.9 1.7 0.00 0.36 0.00 95 1012.6
20260510053005 54 200 1.7 4.3 0.00 0.36 0.00 95 1012.5
20260510051504 53 318 0.9 1.7 0.00 0.36 0.00 94 1012.4
20260510050002 53 319 0.0 0.9 0.00 0.36 0.00 94 1012.5
20260510044503 54 318 0.0 2.6 0.00 0.36 0.00 94 1012.5
20260510043101 54 311 0.9 2.6 0.00 0.36 0.00 94 1012.5
20260510041559 55 315 0.0 1.7 0.00 0.36 0.00 94 1012.2
20260510040101 55 315 0.0 2.6 0.00 0.36 0.00 94 1012.3
20260510034604 54 28 0.9 1.7 0.00 0.36 0.00 94 1012.4
20260510033113 54 28 0.0 2.6 0.00 0.36 0.00 94 1012.2
20260510031557 54 182 0.9 2.6 0.00 0.36 0.00 94 1012.1
20260510030052 54 182 2.6 3.5 0.00 0.36 0.00 93 1012.1
20260510024557 54 203 2.6 3.5 0.00 0.36 0.00 93 1012.0
20260510023048 55 204 0.9 2.6 0.00 0.36 0.00 93 1012.0
20260510021547 55 204 0.0 0.9 0.00 0.36 0.00 93 1012.0
20260510020049 55 204 0.0 2.6 0.00 0.36 0.36 93 1012.0
20260510014545 55 204 0.9 2.6 0.00 0.36 0.36 93 1011.9
20260510013046 55 204 0.9 2.6 0.00 0.36 0.36 93 1011.7
20260510011553 55 204 0.9 2.6 0.00 0.36 0.36 93 1011.7
20260510010044 55 204 0.9 1.7 0.00 0.36 0.36 92 1011.7
20260510004549 55 204 0.9 1.7 0.00 0.36 0.36 92 1011.9
20260510003101 55 204 0.0 2.6 0.00 0.36 0.36 92 1012.1
20260510001543 55 204 0.9 2.6 0.00 0.36 0.36 91 1012.0
20260510000045 55 200 2.6 4.3 0.00 0.36 0.36 91 1012.2
20260509234557 57 26 0.0 1.7 0.00 0.36 0.36 91 1012.2
20260509233042 56 26 0.0 0.9 0.00 0.36 0.36 90 1012.4
20260509231550 57 26 0.0 5.2 0.00 0.36 0.36 88 1012.4
20260509230037 59 184 0.9 2.6 0.00 0.36 0.36 88 1012.4
20260509224536 59 184 1.7 3.5 0.00 0.36 0.36 86 1012.5
20260509223036 60 184 1.7 2.6 0.00 0.36 0.36 85 1012.5
20260509221535 61 173 0.0 1.7 0.00 0.36 0.36 85 1012.4
20260509220034 61 173 0.0 2.6 0.00 0.36 0.36 85 1012.5
20260509214533 60 173 0.9 2.6 0.00 0.36 0.36 86 1012.4
20260509213033 60 189 2.6 4.3 0.00 0.36 0.36 85 1012.3
20260509211538 62 196 1.7 3.5 0.00 0.36 0.36 82 1012.2